Torna al catalogo

STARLINK-4318

AttivoComunicazioniSSO
NORAD 53086·PAYLOAD·🇺🇸 United States

Lanciato Jul 11, 2022 da Vandenberg Space Force Base

Loading…

Prossimi Passaggi (prossime 24 ore)

TLE

AggiornatoSource: CelesTrak SupGP

Epoca: Sep 14, 2026, 21:11 UTC

1 53086C 22077AV  26257.88312500  .00080287  00000+0  24921-2 0  2570
2 53086  97.2859  72.6986 0001511  94.9178 136.2644 15.33400817    17

Traccia STARLINK-4318 in tempo reale con AllMySat

Download on the App Store